When you browse on this site, cookies collect data to enhance your experience and personalize the content and advertising you see.
Visit our Privacy Policy to learn more. By continuing to use the site, you agree to this use of cookies and data.
  • Em Portugal
  • Lista de países
  • Para 7 dias
  • Temperatura da água
  • Mapa do tempo
  • Widgets de tempo
  • user-avatar
    Iniciar Sessão

    Previsão horária em Stirling

    Hoje, 26 Maio, Terça-feira

    Tempo Temperatura Precipitação Vento Pressão Humidade
    00:00 +12°C° 0 mm 3 m/s 772 mmHg 94%
    01:00 +12°C° 0 mm 3 m/s 772 mmHg 94%
    02:00 +12°C° 0 mm 3 m/s 772 mmHg 94%
    03:00 +13°C° 0 mm 2 m/s 773 mmHg 94%
    04:00 +11°C° 0 mm 3 m/s 773 mmHg 91%
    05:00 +11°C° 0 mm 3 m/s 773 mmHg 88%
    06:00 +11°C° 0 mm 3 m/s 773 mmHg 85%
    07:00 +12°C° 0 mm 3 m/s 774 mmHg 78%
    08:00 +13°C° 0 mm 3 m/s 774 mmHg 71%
    09:00 +14°C° 0 mm 4 m/s 775 mmHg 63%
    10:00 +15°C° 0 mm 4 m/s 775 mmHg 61%
    11:00 +17°C° 0 mm 4 m/s 775 mmHg 59%
    12:00 +18°C° 0 mm 4 m/s 775 mmHg 57%
    13:00 +18°C° 0 mm 4 m/s 775 mmHg 57%
    14:00 +18°C° 0 mm 4 m/s 775 mmHg 57%
    15:00 +18°C° 0 mm 4 m/s 776 mmHg 56%
    16:00 +17°C° 0 mm 4 m/s 776 mmHg 59%
    17:00 +17°C° 0 mm 3 m/s 776 mmHg 61%
    18:00 +16°C° 0 mm 3 m/s 776 mmHg 63%
    19:00 +13°C° 0 mm 3 m/s 776 mmHg 68%
    20:00 +12°C° 0 mm 2 m/s 776 mmHg 73%
    21:00 +10°C° 0 mm 2 m/s 777 mmHg 77%
    22:00 +9°C° 0 mm 2 m/s 777 mmHg 80%
    23:00 +8°C° 0 mm 2 m/s 777 mmHg 82%

    Amanhã, 27 Maio, Quarta-feira

    Tempo Temperatura Precipitação Vento Pressão Humidade
    00:00 +8°C° 0 mm 2 m/s 777 mmHg 84%
    01:00 +8°C° 0 mm 2 m/s 777 mmHg 84%
    02:00 +8°C° 0 mm 2 m/s 777 mmHg 85%
    03:00 +9°C° 0 mm 1 m/s 776 mmHg 85%
    04:00 +9°C° 0 mm 1 m/s 776 mmHg 84%
    05:00 +10°C° 0 mm 1 m/s 777 mmHg 82%
    06:00 +11°C° 0 mm 1 m/s 777 mmHg 81%
    07:00 +12°C° 0 mm 1 m/s 777 mmHg 75%
    08:00 +13°C° 0 mm 1 m/s 777 mmHg 69%
    09:00 +15°C° 0 mm 1 m/s 777 mmHg 64%
    10:00 +16°C° 0 mm 1 m/s 777 mmHg 61%
    11:00 +18°C° 0 mm 1 m/s 777 mmHg 58%
    12:00 +18°C° 0 mm 2 m/s 777 mmHg 55%
    13:00 +18°C° 0 mm 2 m/s 777 mmHg 56%
    14:00 +18°C° 0 mm 2 m/s 777 mmHg 56%
    15:00 +18°C° 0 mm 3 m/s 777 mmHg 57%
    16:00 +17°C° 0 mm 2 m/s 776 mmHg 61%
    17:00 +17°C° 0 mm 2 m/s 776 mmHg 65%
    18:00 +16°C° 0 mm 2 m/s 776 mmHg 69%
    19:00 +14°C° 0 mm 1 m/s 776 mmHg 74%
    20:00 +12°C° 0 mm 1 m/s 776 mmHg 80%
    21:00 +11°C° 0 mm 1 m/s 776 mmHg 85%
    22:00 +10°C° 0 mm 1 m/s 776 mmHg 85%
    23:00 +9°C° 0 mm 0 m/s 776 mmHg 85%

    Depois de amanhã, 28 Maio, Quinta-feira

    Tempo Temperatura Precipitação Vento Pressão Humidade
    00:00 +9°C° 0 mm 0 m/s 776 mmHg 85%
    01:00 +9°C° 0 mm 0 m/s 776 mmHg 84%
    02:00 +9°C° 0 mm 0 m/s 776 mmHg 83%
    03:00 +9°C° 0 mm 0 m/s 775 mmHg 82%
    04:00 +10°C° 0 mm 0 m/s 775 mmHg 80%
    05:00 +11°C° 0 mm 0 m/s 775 mmHg 78%
    06:00 +11°C° 0 mm 0 m/s 775 mmHg 76%
    07:00 +14°C° 0 mm 1 m/s 774 mmHg 73%
    08:00 +16°C° 0 mm 1 m/s 774 mmHg 70%
    09:00 +19°C° 0 mm 1 m/s 774 mmHg 67%
    10:00 +20°C° 0 mm 1 m/s 774 mmHg 66%
    11:00 +21°C° 0 mm 1 m/s 774 mmHg 65%
    12:00 +21°C° 0 mm 2 m/s 774 mmHg 64%
    13:00 +23°C° 0 mm 2 m/s 773 mmHg 64%
    14:00 +23°C° 0 mm 2 m/s 773 mmHg 63%
    15:00 +23°C° 0 mm 2 m/s 773 mmHg 63%
    16:00 +23°C° 0 mm 2 m/s 772 mmHg 67%
    17:00 +23°C° 0 mm 1 m/s 772 mmHg 70%
    18:00 +22°C° 0 mm 1 m/s 772 mmHg 73%
    19:00 +20°C° 0 mm 1 m/s 772 mmHg 78%
    20:00 +19°C° 0 mm 1 m/s 772 mmHg 83%
    21:00 +16°C° 0 mm 1 m/s 772 mmHg 88%
    22:00 +16°C° 0 mm 1 m/s 771 mmHg 89%
    23:00 +14°C° 0 mm 0 m/s 771 mmHg 90%

    29 Maio, Sexta-feira

    Tempo Temperatura Precipitação Vento Pressão Humidade
    00:00 +14°C° 0 mm 0 m/s 771 mmHg 91%
    01:00 +13°C° 0 mm 0 m/s 771 mmHg 91%
    02:00 +13°C° 0 mm 0 m/s 771 mmHg 91%
    03:00 +13°C° 0 mm 0 m/s 770 mmHg 92%
    04:00 +14°C° 0 mm 1 m/s 770 mmHg 90%
    05:00 +15°C° 0 mm 1 m/s 770 mmHg 89%
    06:00 +16°C° 0 mm 1 m/s 770 mmHg 87%
    07:00 +18°C° 0 mm 1 m/s 769 mmHg 81%
    08:00 +18°C° 0 mm 2 m/s 769 mmHg 75%
    09:00 +19°C° 0 mm 3 m/s 769 mmHg 68%
    10:00 +20°C° 0 mm 3 m/s 769 mmHg 64%
    11:00 +20°C° 0 mm 3 m/s 769 mmHg 59%
    12:00 +21°C° 0 mm 3 m/s 768 mmHg 55%
    13:00 +21°C° 0 mm 3 m/s 768 mmHg 54%
    14:00 +21°C° 0 mm 3 m/s 768 mmHg 53%
    15:00 +22°C° 0 mm 3 m/s 767 mmHg 53%
    16:00 +21°C° 0 mm 3 m/s 767 mmHg 56%
    17:00 +20°C° 0 mm 3 m/s 767 mmHg 60%
    18:00 +20°C° 0 mm 2 m/s 767 mmHg 63%
    19:00 +18°C° 0 mm 2 m/s 767 mmHg 63%
    20:00 +16°C° 0 mm 2 m/s 767 mmHg 63%
    21:00 +15°C° 0 mm 1 m/s 767 mmHg 63%
    22:00 +14°C° 0 mm 1 m/s 767 mmHg 65%
    23:00 +14°C° 0 mm 1 m/s 767 mmHg 68%

    30 Maio, Sábado

    Tempo Temperatura Precipitação Vento Pressão Humidade
    00:00 +14°C° 0 mm 1 m/s 767 mmHg 70%
    01:00 +13°C° 0 mm 1 m/s 767 mmHg 72%
    02:00 +13°C° 0 mm 1 m/s 766 mmHg 75%
    03:00 +13°C° 0 mm 1 m/s 766 mmHg 77%
    04:00 +14°C° 0 mm 1 m/s 766 mmHg 77%
    05:00 +14°C° 0 mm 1 m/s 766 mmHg 77%
    06:00 +15°C° 0 mm 1 m/s 766 mmHg 77%
    07:00 +16°C° 0 mm 1 m/s 766 mmHg 73%
    08:00 +18°C° 0 mm 2 m/s 766 mmHg 69%
    09:00 +19°C° 0 mm 2 m/s 766 mmHg 65%
    10:00 +20°C° 0 mm 2 m/s 766 mmHg 62%
    11:00 +21°C° 0 mm 3 m/s 766 mmHg 59%
    12:00 +22°C° 0 mm 3 m/s 766 mmHg 56%
    13:00 +22°C° 0 mm 3 m/s 766 mmHg 55%
    14:00 +22°C° 0 mm 3 m/s 766 mmHg 53%
    15:00 +22°C° 0 mm 4 m/s 766 mmHg 52%
    16:00 +21°C° 0 mm 3 m/s 766 mmHg 55%
    17:00 +21°C° 0 mm 3 m/s 766 mmHg 59%
    18:00 +20°C° 0 mm 3 m/s 766 mmHg 63%
    19:00 +18°C° 0 mm 2 m/s 766 mmHg 67%
    20:00 +17°C° 0 mm 2 m/s 766 mmHg 72%
    21:00 +15°C° 0 mm 1 m/s 766 mmHg 77%
    22:00 +14°C° 0 mm 1 m/s 766 mmHg 79%
    23:00 +14°C° 0 mm 1 m/s 766 mmHg 80%

    31 Maio, Domingo

    Tempo Temperatura Precipitação Vento Pressão Humidade
    00:00 +12°C° 0 mm 0 m/s 766 mmHg 82%
    01:00 +12°C° 0 mm 0 m/s 766 mmHg 83%
    02:00 +12°C° 0 mm 0 m/s 766 mmHg 85%
    03:00 +11°C° 0 mm 0 m/s 766 mmHg 86%
    04:00 +12°C° 0 mm 0 m/s 765 mmHg 85%
    05:00 +13°C° 0 mm 0 m/s 765 mmHg 84%
    06:00 +14°C° 0 mm 0 m/s 765 mmHg 82%
    07:00 +18°C° 0 mm 1 m/s 765 mmHg 79%
    08:00 +19°C° 0 mm 1 m/s 765 mmHg 76%
    09:00 +21°C° 0 mm 1 m/s 765 mmHg 74%
    10:00 +21°C° 0.3 mm 2 m/s 765 mmHg 71%
    11:00 +21°C° 0.3 mm 2 m/s 765 mmHg 69%
    12:00 +23°C° 0.3 mm 2 m/s 765 mmHg 67%
    13:00 +23°C° 1.1 mm 2 m/s 765 mmHg 69%
    14:00 +21°C° 1.1 mm 2 m/s 765 mmHg 72%
    15:00 +21°C° 1.1 mm 2 m/s 765 mmHg 74%
    16:00 +20°C° 0.7 mm 2 m/s 764 mmHg 77%
    17:00 +21°C° 0.7 mm 1 m/s 764 mmHg 80%
    18:00 +20°C° 0.7 mm 1 m/s 764 mmHg 83%
    19:00 +19°C° 0.3 mm 1 m/s 764 mmHg 86%
    20:00 +18°C° 0.3 mm 1 m/s 764 mmHg 89%
    21:00 +16°C° 0.3 mm 1 m/s 764 mmHg 91%
    22:00 +15°C° 0.1 mm 1 m/s 764 mmHg 93%
    23:00 +14°C° 0.1 mm 1 m/s 764 mmHg 94%
    Mostrar mais